Location: Mahannah Oil Field
(37.4664°N, 96.6003°W)
Time: 15:24:33
(UTC+00:00)

A-11 Canister half - Pass Details

Date: 26 January 2021
Orbit: 1525 x 1684 km, 47.3° (Epoch: 05 March)

Event Time Altitude Azimuth Distance (km) Brightness Sun altitude
Rises 00:05:55 0° 289° (WNW) 4,707 12.5 -5.0°
Reaches altitude 10° 00:09:07 10° 295° (WNW) 3,740 11.8 -5.6°
Maximum altitude 00:18:15 49° 9° (N) 1,971 9.4 -7.3°
Drops below altitude 10° 00:27:41 10° 83° (E) 3,858 10.4 -9.1°
Enters shadow 00:27:45 10° 83° (E) 3,878 10.4 -9.1°
